RH
56 60 65 65 64 65 68 72 75 77 72 70 66 69 83 87 82 80 76 73 74 72 71 71 71 71 75 78 82 77 74 72 80 66 71 71 72 66 67 77 81 83 89
64 65 60 69 63 62 67 66 66 58 56 56 60 61 65 66 66 70 71 67 69 69 68 70 70 53 70 77 83 82 79 80 85 88 82 79 74 74 78 80 75 75 84
68 62 58 64 60 65 62 59 56 52 50 52 52 57 60 66 66 68 69 69 69 70 72 75 76 80 86 87 86 89 87 72 89 90 88 91 90 89 85 83 82 82 71
72 62 59 58 63 66 63 66 73 66 60 59 60 65 69 66 61 63 66 75 77 73 76 77 78 81 81 81 77 80 76 84 87 90 81 80 90 83 90 89 87 86 83
86 73 81 74 72 75 91 89 79 72 64 68 68 64 65 62 56 80 74 74 76 76 77 76 75 73 66 68 70 78 84 82 78 74 70 66 65 72 80 72 78 82 91
90 91 86 89 90 92 92 90 89 89 80 65 62 64 68 58 84 74 78 84 79 78 78 74 76 71 74 70 68 68 72 78 79 80 78 81 78 82 84 80 84 84 87
91 88 89 91 95 94 90 89 90 73 64 61 63 67 74 76 72 71 73 83 83 83 86 85 78 69 74 74 74 73 76 75 79 81 83 77 79 74 73 84 87 89 86
80 69 66 70 70 72 66 63 63 62 60 63 70 77 80 76 74 71 74 83 88 88 85 84 86 86 81 77 78 82 77 75 78 76 81 80 80 77 78 78 81 80 80
62 61 58 64 64 62 61 63 63 63 65 74 80 83 81 82 72 69 72 92 91 90 85 83 84 84 81 78 82 95 89 80 73 75 76 78 77 77 79 86 96 97 94
64 61 60 61 63 64 65 62 62 67 74 82 80 80 79 90 79 72 75 89 95 88 84 78 78 79 79 77 85 94 94 84 78 74 80 80 82 84 83 85 96 96 94
59 62 62 64 68 65 62 65 72 82 86 93 92 91 89 87 90 78 74 86 94 93 90 87 88 83 82 83 90 97 95 82 88 86 83 92 89 89 87 85 90 96 97
64 66 71 75 66 58 68 74 76 84 92 93 97 95 94 94 85 81 75 75 80 96 93 95 92 81 80 76 82 91 85 96 96 96 95 94 95 93 85 84 84 88 86
71 74 78 76 70 68 76 77 78 85 95 96 96 96 94 93 95 82 79 82 85 95 97 82 76 78 80 87 82 84 93 95 93 93 93 89 84 83 79 85 89 89 91
72 75 80 84 79 79 77 74 80 95 97 95 96 94 94 93 90 89 94 94 88 96 95 97 87 86 90 93 93 92 95 97 97 96 95 92 91 97 97 95 96 96 98
72 75 83 87 87 82 77 83 89 94 95 92 96 97 96 93 91 91 94 95 97 97 94 96 92 90 91 89 89 90 91 92 95 96 98 98 97 97 97 98 97 98 97
77 83 94 97 97 87 82 85 74 79 72 71 73 82 87 84 85 90 91 93 94 91 94 95 96 96 96 94 94 94 91 92 92 94 98 98 98 97 98 98 97 97 95
95 94 96 95 96 94 96 97 99 87 76 76 75 72 73 82 89 91 92 93 92 83 94 94 96 96 96 93 94 94 95 94 94 94 96 96 97 98 97 97 96 97 98
96 96 99 99 98 96 98 98 99 100 100 97 86 77 80 86 90 91 91 90 89 89 92 94 95 95 95 94 93 95 95 95 94 94 95 96 96 98 97 98 98 97 98
91 95 96 97 98 98 98 98 98 99 98 99 97 93 90 86 90 90 91 94 94 93 92 92 95 94 94 95 96 96 98 97 98 97 96 96 97 98 97 97 97 98 97
85 94 93 97 98 98 98 98 99 99 99 100 100 98 94 91 94 95 95 96 95 94 94 93 93 93 95 95 96 96 95 95 96 96 96 97 97 98 99 97 98 98 97
98 98 93 97 99 99 98 99 99 100 100 100 100 99 96 96 96 96 95 95 95 95 95 94 95 95 94 94 94 96 96 96 96 98 98 98 98 99 98 99 99 99 98
98 99 99 98 99 99 99 99 100 100 99 100 99 98 95 98 97 96 96 96 96 95 95 95 95 95 95 95 95 96 96 96 96 98 98 98 99 99 98 99 98 99 98
99 98 99 99 99 100 99 99 99 100 99 100 99 98 98 98 98 97 96 97 96 95 95 95 96 95 93 95 95 96 97 97 97 97 100 98 98 99 100 100 100 98 99
98 99 99 100 100 100 99 100 100 100 98 100 100 100 98 98 98 97 97 97 96 96 96 96 96 95 93 93 94 94 94 95 96 96 97 97 97 97 97 99 99 99 98
98 98 99 100 100 100 100 100 100 100 100 99 99 99 98 98 98 98 98 98 97 97 95 96 96 96 94 93 93 92 93 96 94 96 95 93 92 94 97 98 100 99 99
98 98 98 99 99 100 100 100 100 100 99 99 99 99 99 98 98 98 98 97 97 97 96 96 95 95 96 92 92 92 91 91 92 92 94 91 92 94 94 94 94 98 98
Wind_Speed
7 7 8 10 6 4 4 5 5 3 2 1 0 5 3 5 6 5 5 5 5 5 4 6 7 6 5 4 4 5 6 6 10 7 4 4 3 6 6 5 4 3 4
7 8 10 8 5 3 3 3 4 3 3 1 1 1 3 5 5 5 6 5 6 6 6 6 7 6 6 6 4 7 6 6 5 9 3 2 4 2 2 5 3 3 3
7 10 11 7 2 3 1 2 1 2 2 2 3 5 5 4 4 5 5 5 5 5 5 5 6 5 5 4 4 4 4 5 3 4 5 3 3 3 3 4 3 4 4
7 7 7 3 2 2 3 6 6 5 5 6 5 5 4 4 4 4 3 2 3 4 5 5 6 6 7 7 8 8 7 7 5 5 7 6 5 5 4 5 6 3 5
7 6 6 5 5 6 5 7 7 7 6 6 6 5 5 3 3 3 2 2 4 6 7 7 8 11 19 17 10 11 9 9 9 10 11 10 9 7 8 8 9 7 6
4 4 4 4 7 8 8 7 6 9 9 6 5 5 6 3 8 3 2 4 6 8 9 10 9 16 15 21 22 23 17 12 12 9 9 10 9 6 4 6 8 8 11
3 3 3 5 3 5 7 9 9 6 4 5 6 5 5 2 5 8 12 5 7 9 10 10 10 9 15 11 17 22 20 22 17 12 13 12 11 9 9 8 8 7 9
5 5 4 3 3 5 5 5 6 4 4 4 5 5 4 4 10 14 15 7 7 9 10 11 11 13 13 15 14 14 14 14 13 10 11 12 11 11 10 10 11 11 9
6 7 7 7 6 6 6 6 4 4 4 4 2 4 5 6 13 16 14 5 7 9 9 11 11 13 18 24 16 14 14 13 14 23 23 22 21 20 15 7 9 8 8
3 6 5 5 5 5 5 6 3 3 3 3 4 4 8 6 13 17 15 6 7 8 10 12 18 18 23 23 15 13 14 13 11 12 9 15 19 17 21 14 8 9 8
4 5 5 5 6 5 5 3 4 4 3 4 5 6 6 8 9 18 19 8 6 8 9 10 8 18 22 23 21 11 14 13 10 9 9 7 8 8 9 10 11 10 7
4 5 5 5 4 5 5 5 3 4 4 5 5 6 5 6 13 16 19 18 17 9 11 8 8 19 20 20 15 16 18 11 7 7 7 8 8 8 9 9 11 10 10
4 5 5 5 5 4 4 5 3 4 3 5 5 6 7 5 6 17 19 20 17 10 6 10 18 17 17 12 15 17 10 6 6 7 8 8 9 8 8 8 9 10 11
4 4 4 4 5 4 4 3 3 4 4 5 5 7 6 7 7 7 7 7 14 8 6 4 7 10 9 8 8 8 6 5 6 7 7 7 5 5 6 6 7 7 6
3 4 4 2 3 4 3 3 3 4 2 5 4 5 7 8 8 15 14 9 6 4 5 3 4 6 7 7 7 7 7 6 6 6 4 4 3 4 5 3 4 3 6
4 3 2 2 3 3 3 4 7 7 11 13 14 8 7 15 19 18 18 16 13 12 3 4 5 6 6 7 7 8 6 9 7 7 4 1 2 3 3 3 5 5 6
3 4 3 3 3 2 2 3 4 6 11 11 13 14 17 17 17 18 17 14 14 10 5 6 5 6 7 7 7 8 8 8 9 7 6 5 4 3 4 4 5 5 2
2 3 1 2 2 3 2 3 2 2 3 5 8 12 15 17 16 17 18 11 6 8 6 6 6 6 7 7 7 7 7 8 8 8 7 6 6 3 3 2 2 1 2
2 1 2 2 2 2 2 2 2 2 3 3 4 5 8 14 14 15 15 6 6 6 7 7 6 7 7 7 7 7 5 6 6 6 7 7 6 4 4 4 3 4 3
2 3 3 2 2 2 2 2 3 2 3 3 3 4 6 5 6 7 6 6 6 6 7 7 7 7 7 7 7 7 7 7 7 7 6 6 6 4 4 4 4 3 3
2 2 2 1 1 2 2 3 2 2 2 3 3 3 7 4 5 5 6 6 6 6 6 7 7 7 7 7 7 7 7 7 6 6 5 5 5 4 4 4 3 3 3
1 1 2 2 2 3 3 2 2 2 2 2 3 3 6 3 4 4 4 5 5 5 5 6 6 6 6 7 7 7 7 7 7 5 5 4 4 4 4 3 4 4 4
1 1 3 2 2 3 2 2 1 2 2 2 2 2 2 3 3 4 4 4 4 5 5 5 5 6 7 7 6 6 6 7 7 5 4 4 4 4 4 4 3 4 3
2 2 3 2 2 2 2 3 3 3 2 1 2 2 2 2 3 3 3 3 4 4 4 4 5 6 7 7 7 7 6 7 5 5 5 4 5 5 4 4 4 4 3
3 2 2 3 3 3 2 2 3 3 2 1 2 1 1 2 2 2 2 2 3 3 5 5 5 7 8 10 10 10 10 11 8 7 4 5 7 8 5 4 4 4 5
2 3 2 2 3 3 3 3 3 3 3 2 2 1 1 1 2 2 2 2 2 3 4 4 5 8 9 8 9 11 11 11 10 10 5 5 6 5 5 6 6 4 3
Wind_Direction
296 287 287 279 270 250 176 132 142 143 158 244 193 98 176 228 242 248 255 259 251 264 270 271 267 261 262 252 241 253 260 258 269 274 241 239 257 279 291 306 322 315 300
308 311 311 294 246 208 173 142 147 145 107 225 289 238 250 254 266 270 275 281 276 274 271 271 271 278 267 251 241 247 252 258 265 279 249 267 245 257 287 296 298 316 314
318 318 311 299 216 155 119 102 122 22 0 306 298 279 287 290 288 278 266 278 282 281 287 287 284 293 286 281 272 263 257 268 256 265 269 229 250 261 290 276 269 293 305
314 310 304 313 125 72 57 34 12 339 313 300 291 289 293 291 286 289 300 349 355 326 301 281 274 268 267 270 268 258 254 248 241 249 265 259 230 255 249 266 275 263 281
320 337 357 19 37 57 18 6 350 330 301 316 302 308 314 317 293 120 84 324 299 286 276 268 265 263 276 274 268 261 248 254 258 262 264 264 256 241 236 252 258 269 251
345 20 24 40 360 346 330 296 297 293 298 278 308 307 307 297 162 179 269 276 274 279 282 283 272 280 279 278 277 275 267 266 262 259 261 256 259 242 233 241 252 250 260
355 311 305 280 265 274 266 261 255 269 304 317 309 322 328 353 316 325 318 286 282 282 280 283 283 279 282 274 273 273 272 268 258 251 253 251 254 247 249 241 235 243 250
31 25 16 359 282 270 295 323 325 318 308 321 335 346 341 323 324 317 311 295 282 278 278 279 277 278 278 283 278 273 267 262 256 247 244 247 244 241 235 236 239 245 255
14 357 331 326 344 344 336 326 319 333 341 336 335 351 330 304 318 316 314 286 285 280 284 283 282 281 281 286 285 278 271 265 257 253 251 245 247 245 238 235 234 231 241
250 300 328 335 341 336 330 330 326 328 335 8 330 322 315 301 313 318 317 292 290 300 295 293 286 281 285 290 283 275 271 265 259 258 245 247 247 246 245 240 237 224 227
15 340 339 339 335 350 329 338 344 10 350 333 325 309 302 302 301 314 315 306 295 293 292 293 289 291 293 292 292 288 268 263 261 257 259 242 230 230 234 234 229 237 227
10 347 338 338 342 342 344 340 0 347 325 314 309 306 296 293 304 310 314 311 306 299 291 295 305 311 315 313 308 298 301 281 250 247 245 243 232 228 227 222 226 228 232
351 337 331 330 333 345 349 334 321 336 324 311 312 315 310 305 296 306 309 308 308 298 304 321 329 326 324 320 316 317 315 290 268 261 251 245 240 237 229 224 222 226 230
329 323 321 328 334 340 331 318 315 312 309 312 311 315 309 312 311 306 302 317 308 307 311 313 327 327 313 298 314 321 308 290 271 260 260 249 232 212 226 211 212 209 218
301 308 312 299 315 310 316 298 296 285 260 315 287 299 324 319 311 326 332 323 327 339 330 329 338 338 332 340 337 334 331 336 330 316 285 272 215 207 218 195 218 200 223
294 308 298 292 295 301 309 311 323 325 339 334 327 327 325 318 330 338 340 337 2 2 356 351 347 329 333 344 343 335 337 346 337 327 309 262 209 216 234 223 227 215 228
254 297 298 303 290 290 307 309 307 324 334 340 341 339 337 334 347 350 352 358 15 19 6 359 344 338 340 349 350 345 338 338 334 344 349 354 318 230 218 220 219 224 207
285 289 289 286 274 302 310 287 277 302 310 313 331 341 346 346 355 4 8 5 6 13 360 354 345 345 345 346 347 347 344 342 350 353 355 352 351 6 9 16 52 71 73
359 295 220 269 292 288 275 296 283 314 309 302 318 329 339 348 357 10 16 15 4 2 356 349 348 347 347 343 338 338 335 342 340 353 357 356 353 356 37 20 39 61 83
327 298 246 277 314 318 330 317 317 318 317 319 322 319 337 339 355 356 6 5 8 3 353 348 346 347 346 346 341 342 345 357 359 6 2 356 354 8 21 22 35 46 42
282 298 322 334 295 282 277 280 283 284 294 309 288 315 348 350 349 356 1 2 7 3 355 349 343 345 349 347 348 345 347 347 357 359 0 1 359 3 4 30 32 44 63
324 288 322 276 293 324 306 305 293 285 297 308 308 326 358 348 348 356 5 7 5 2 355 351 347 346 345 343 341 343 344 347 351 356 351 357 9 15 3 17 37 37 38
133 17 320 305 323 312 317 314 291 263 289 304 312 332 335 342 342 356 3 359 5 359 353 355 351 349 347 347 348 346 344 342 333 344 356 4 16 19 17 24 19 34 39
173 225 278 285 303 301 296 299 302 284 241 283 300 312 330 336 341 351 5 355 2 353 354 353 353 356 351 354 349 348 348 344 340 354 11 22 25 15 27 30 24 32 38
207 251 248 260 265 260 287 289 291 283 250 253 284 285 313 357 346 341 342 348 353 358 1 359 357 355 2 356 354 356 352 6 13 352 4 33 44 33 20 27 21 17 26
252 256 260 258 250 243 235 250 258 262 246 251 249 263 260 333 327 327 343 4 354 351 358 358 2 5 360 358 357 5 4 7 11 8 13 37 39 28 30 31 25 32 28